This is the latest recevied weather packets stored in our database for station/object SV9TNF-52. If no packets are shown the sender has not sent any weather packets the latest 10 day(s).
| Time | Temp. | Humidity | Pressure | Rain* | Wind** | Luminosity | Snow |
|---|---|---|---|---|---|---|---|
| 1788208978 | 23.33° C | 56% | 1020 hPa | 0 mm | 6.26 m/s, 113° | - | - |
| 1788208677 | 23.33° C | 56% | 1020 hPa | 0 mm | 7.15 m/s, 240° | - | - |
| 1788208378 | 23.33° C | 57% | 1020 hPa | 0 mm | 4.47 m/s, 162° | - | - |
| 1788208078 | 23.33° C | 56% | 1020 hPa | 0 mm | 5.36 m/s, 179° | - | - |
| 1788207777 | 23.33° C | 56% | 1020 hPa | 0 mm | 4.47 m/s, 185° | - | - |
| 1788207477 | 23.33° C | 56% | 1020 hPa | 0 mm | 4.92 m/s, 160° | - | - |
| 1788207177 | 23.33° C | 57% | 1020 hPa | 0 mm | 4.92 m/s, 224° | - | - |
| 1788206877 | 23.33° C | 58% | 1020 hPa | 0 mm | 4.47 m/s, 227° | - | - |
| 1788206577 | 23.33° C | 58% | 1020 hPa | 0 mm | 4.92 m/s, 197° | - | - |
| 1788206277 | 23.33° C | 58% | 1020 hPa | 0 mm | 4.92 m/s, 224° | - | - |
| 1788205977 | 23.33° C | 58% | 1020 hPa | 0 mm | 4.92 m/s, 231° | - | - |
| 1788205676 | 23.33° C | 58% | 1020 hPa | 0 mm | 4.92 m/s, 186° | - | - |
| 1788205376 | 23.33° C | 58% | 1020 hPa | 0 mm | 4.92 m/s, 213° | - | - |
| 1788205076 | 23.33° C | 59% | 1020 hPa | 0 mm | 4.92 m/s, 198° | - | - |
| 1788204776 | 23.33° C | 59% | 1020 hPa | 0 mm | 4.02 m/s, 199° | - | - |
| 1788204481 | 23.33° C | 60% | 1020 hPa | 0 mm | 4.47 m/s, 201° | - | - |
| 1788204176 | 23.33° C | 61% | 1020 hPa | 0 mm | 4.47 m/s, 293° | - | - |
| 1788203876 | 23.33° C | 62% | 1020 hPa | 0 mm | 4.92 m/s, 248° | - | - |
| 1788203576 | 23.33° C | 64% | 1020 hPa | 0 mm | 4.47 m/s, 146° | - | - |
| 1788203276 | 23.33° C | 64% | 1020 hPa | 0 mm | 4.02 m/s, 235° | - | - |
| 1788202976 | 23.33° C | 65% | 1020 hPa | 0 mm | 4.92 m/s, 245° | - | - |
| 1788202676 | 23.33° C | 67% | 1020 hPa | 0 mm | 4.47 m/s, 152° | - | - |
| 1788202376 | 23.33° C | 68% | 1020 hPa | 0 mm | 4.92 m/s, 229° | - | - |
| 1788202075 | 23.89° C | 69% | 1020 hPa | 0 mm | 4.02 m/s, 213° | - | - |
| 1788201776 | 23.89° C | 70% | 1020 hPa | 0 mm | 4.92 m/s, 200° | - | - |
* Rain latest hour (hover to see other rain measurements)
** Current wind speed in m/s (hover to see current wind gust speed)